[[{"header":{"parameterUnit":"m.s-1","parameterCategory":1,"la1":30.2991,"la2":30.254,"lo1":-89.0895,"lo2":-89.0444,"dy":0.0017,"dx":0.0017,"nx":28,"ny":28,"refTime":"2023-09-15T09:00:00:Z","depth":0,"parameterNumber":2,"parameterNumberName":"U-component_of_WINDS"},"data":[0,0,0,0,0,0,0,0,0,0,0,0,0,0,0,0,0,0,0,0,0,0,0,0,0,0,0,0,0,0,0,0,0,0,0,0,0,0,0,0,0,0,0,0,0,0,0,0,0,0,0,0,0,0,0,0,0,0,1.5892,1.5893,0,1.598,1.5981,1.5982,1.6,1.5999,1.5999,1.5998,1.6085,1.6088,1.6091,0,0,0,0,0,0,0,0,0,0,0,0,0,1.5738,1.574,1.5892,1.5893,1.5894,1.598,1.5981,1.5982,1.6,1.5999,1.5999,1.5998,1.6084,1.6088,1.6091,0,0,0,0,0,0,0,0,0,0,0,0,0,1.5813,1.5741,1.5892,1.5914,1.5916,1.5979,1.5981,1.5982,1.6,1.5999,1.5998,1.5997,1.6083,1.6088,1.6092,1.6139,0,0,1.6105,1.6107,0,0,0,0,0,0,0,0,1.5808,1.5818,1.5909,1.5912,1.5915,1.5978,1.5958,1.6035,1.6001,1.5968,1.5998,1.5997,1.605,1.6057,1.6076,1.6143,1.6146,1.6106,1.6108,1.611,1.6112,0,0,0,0,0,0,0,1.5803,1.5815,1.5927,1.5911,1.5914,1.5918,1.5928,1.5973,1.6014,1.5971,1.5973,1.5983,1.6052,1.6072,1.6078,1.6148,1.6106,1.611,1.6112,1.6114,1.6256,1.6257,0,0,0,0,0,0,1.5795,1.581,1.5924,1.5929,1.5859,1.5922,1.5932,1.5959,1.6013,1.6021,1.5984,1.5983,1.6065,1.6073,1.6081,1.6138,1.611,1.6114,1.6117,1.6255,1.6257,1.6258,0,0,0,0,0,0,1.5791,1.5805,1.592,1.587,1.5885,1.5925,1.5955,1.5961,1.5981,1.6023,1.603,1.5996,1.6064,1.6075,1.6124,1.6142,1.6116,1.612,1.6254,1.6256,1.6257,1.6254,0,0,0,0,0,0,1.5787,1.5803,1.5822,1.5871,1.5888,1.5962,1.5956,1.5963,1.5989,1.5989,1.6037,1.6044,1.6064,1.6117,1.6129,1.6147,1.6124,1.6252,1.6255,1.6257,1.6252,1.6255,1.6257,0,0,0,0,0,1.5781,1.5817,1.5823,1.5836,1.5912,1.5963,1.5973,1.5997,1.599,1.6009,1.6036,1.6042,1.6138,1.6122,1.6135,1.6155,1.6251,1.6254,1.6256,1.6251,1.6254,1.6257,0,0,0,0,0,0,1.5768,1.5824,1.5831,1.5884,1.5919,1.5966,1.599,1.6,1.6037,1.6036,1.6063,1.6073,1.6121,1.6143,1.6124,1.6203,1.6194,1.62,1.6186,1.619,1.6192,1.6185,1.6127,0,0,0,0,0,1.5772,1.5809,1.5856,1.5898,1.5915,1.595,1.5973,1.5988,1.6025,1.604,1.6071,1.6106,1.6144,1.6168,1.6206,1.6256,1.6266,1.6277,1.6279,1.6281,1.6284,1.6312,1.6317,1.6266,1.6266,1.6266,0,0,1.5779,1.5814,1.5836,1.5896,1.5925,1.5963,1.5962,1.6002,1.603,1.6046,1.6094,1.6118,1.6159,1.6208,1.6232,1.6229,1.6301,1.6284,1.6285,1.6288,1.6315,1.632,1.6324,1.6268,1.6268,1.6267,0,0,1.581,1.5841,1.5879,1.5909,1.5953,1.5976,1.5985,1.6032,1.6049,1.6098,1.611,1.6144,1.6209,1.6238,1.626,1.6304,1.6311,1.6315,1.6328,1.6354,1.6358,1.6361,1.6375,1.638,1.6319,1.6319,1.6319,0,1.5813,1.5871,1.5898,1.5937,1.5963,1.5981,1.6019,1.6046,1.6099,1.6116,1.6112,1.6195,1.6224,1.628,1.629,1.6309,1.6319,1.6309,1.6355,1.6359,1.6363,1.6377,1.6382,1.6319,1.6319,1.6319,1.6319,0,1.5871,1.5912,1.5937,1.5989,1.6018,1.6057,1.6088,1.6114,1.6127,1.615,1.6199,1.6235,1.628,1.6295,1.6308,1.6353,1.6349,1.635,1.6342,1.6367,1.6381,1.6386,1.632,1.6319,1.6319,1.6319,0,0,1.5896,1.5963,1.5972,1.5996,1.6047,1.6078,1.6117,1.6161,1.6182,1.6219,1.6252,1.6307,1.6308,1.6334,1.6351,1.6374,1.6405,1.6372,1.6374,1.6376,1.6455,1.6453,1.6458,1.6411,1.6412,1.6413,1.6451,0,1.5932,1.6004,1.6029,1.6087,1.6124,1.6142,1.6176,1.621,1.6233,1.6267,1.6292,1.633,1.6329,1.6345,1.6369,1.6396,1.6421,1.6394,1.644,1.6441,1.6427,1.6466,1.6463,1.6498,1.6456,1.6457,1.6458,0,1.5984,1.6023,1.6085,1.6131,1.6147,1.6177,1.622,1.6253,1.6292,1.6306,1.6336,1.6351,1.6392,1.6382,1.6438,1.6419,1.644,1.6456,1.6458,1.6461,1.645,1.6469,1.651,1.6514,1.6467,1.6466,1.6465,0,1.5993,1.6061,1.6107,1.6127,1.6182,1.6203,1.6226,1.6265,1.629,1.6327,1.6344,1.6385,1.6407,1.6438,1.6464,1.6455,1.6517,1.651,1.6529,1.6528,1.654,1.6538,1.6583,1.6556,1.6556,1.6555,1.6555,0,1.6031,1.6067,1.6112,1.6139,1.6181,1.621,1.625,1.6275,1.6309,1.6341,1.636,1.6389,1.6422,1.6456,1.6476,1.6518,1.6529,1.6541,1.6545,1.6538,1.6536,1.6551,1.6548,1.6557,1.6557,1.6556,1.6556,0,1.6047,1.6079,1.6129,1.6178,1.6191,1.622,1.6261,1.6288,1.6312,1.6353,1.6364,1.6402,1.6442,1.6471,1.6524,1.6537,1.6582,1.6588,1.6569,1.6571,1.6588,1.6585,1.6642,1.665,1.6619,1.6619,1.6619,0,1.6068,1.6097,1.6149,1.6173,1.6197,1.6234,1.626,1.629,1.6316,1.6363,1.6384,1.6427,1.6462,1.6526,1.6557,1.6597,1.6602,1.6619,1.6608,1.66,1.6601,1.6598,1.66,1.662,1.662,1.6621,1.6621,0,1.6101,1.6115,1.6153,1.6196,1.6226,1.6261,1.6296,1.6314,1.635,1.6378,1.642,1.6448,1.6502,1.6543,1.6586,1.661,1.6621,1.6624,1.6631,1.6623,1.661,1.6616,1.6572,1.6622,1.6622,1.6622,1.6622,1.6622,1.6119,1.6146,1.6187,1.6227,1.6257,1.629,1.6318,1.6346,1.6382,1.6429,1.6444,1.6487,1.6526,1.6585,1.6609,1.6643,1.6642,1.6651,1.6653,1.6655,1.6654,1.6606,1.6651,1.6651,1.6651,1.6651,1.6651,0,1.6152,1.6179,1.6217,1.6266,1.6298,1.6308,1.6347,1.6372,1.6411,1.6446,1.6481,1.6529,1.6569,1.6604,1.6646,1.6666,1.6672,1.6676,1.6674,1.6679,1.6653,1.6643,1.667,1.667,1.667,1.667,1.667,1.667,1.6172,1.6217,1.6237,1.6296,1.6323,1.6367,1.6388,1.6418,1.6446,1.65,1.6534,1.6557,1.6591,1.6636,1.6673,1.6682,1.6696,1.6698,1.6708,1.6683,1.668,1.6678,1.6669,1.6701,1.6701,1.673,1.6731,1.6731]},{"header":{"parameterUnit":"m.s-1","parameterCategory":1,"la1":30.2991,"la2":30.254,"lo1":-89.0895,"lo2":-89.0444,"dy":0.0017,"dx":0.0017,"nx":28,"ny":28,"refTime":"2023-09-15T09:00:00:Z","depth":0,"parameterNumber":3,"parameterNumberName":"V-component_of_WINDS"},"data":[0,0,0,0,0,0,0,0,0,0,0,0,0,0,0,0,0,0,0,0,0,0,0,0,0,0,0,0,0,0,0,0,0,0,0,0,0,0,0,0,0,0,0,0,0,0,0,0,0,0,0,0,0,0,0,0,0,0,2.2782,2.2782,0,2.2775,2.2775,2.2775,2.2769,2.2769,2.2769,2.2769,2.276,2.276,2.276,0,0,0,0,0,0,0,0,0,0,0,0,0,2.2786,2.2786,2.2782,2.2781,2.2781,2.2775,2.2775,2.2775,2.2769,2.2769,2.2769,2.2769,2.276,2.276,2.276,0,0,0,0,0,0,0,0,0,0,0,0,0,2.2782,2.2786,2.2782,2.2778,2.2778,2.2775,2.2775,2.2775,2.2769,2.2769,2.2769,2.2769,2.276,2.276,2.276,2.2759,0,0,2.2759,2.2758,0,0,0,0,0,0,0,0,2.2782,2.2782,2.2779,2.2778,2.2778,2.2773,2.2773,2.2769,2.2769,2.2772,2.2769,2.2769,2.2764,2.2764,2.2762,2.2759,2.2758,2.2759,2.2758,2.2758,2.2758,0,0,0,0,0,0,0,2.2782,2.2782,2.2779,2.2779,2.2778,2.2775,2.2775,2.2772,2.2769,2.2772,2.2772,2.2771,2.2764,2.2763,2.2762,2.2758,2.2759,2.2758,2.2758,2.2758,2.275,2.275,0,0,0,0,0,0,2.2784,2.2782,2.2779,2.2779,2.278,2.2775,2.2775,2.2775,2.2769,2.2768,2.2771,2.2771,2.2763,2.2762,2.2762,2.2759,2.2758,2.2758,2.2758,2.275,2.275,2.275,0,0,0,0,0,0,2.2784,2.2783,2.2779,2.278,2.278,2.2775,2.2775,2.2774,2.2773,2.2768,2.2767,2.2771,2.2763,2.2762,2.2759,2.2758,2.2758,2.2758,2.275,2.275,2.275,2.2754,0,0,0,0,0,0,2.2784,2.2783,2.2784,2.278,2.278,2.2778,2.2775,2.2774,2.2773,2.2773,2.2767,2.2767,2.2763,2.276,2.2759,2.2758,2.2757,2.275,2.275,2.275,2.2754,2.2754,2.2754,0,0,0,0,0,2.2784,2.2786,2.2785,2.2784,2.2781,2.2778,2.2778,2.2774,2.2773,2.2773,2.2769,2.2767,2.2759,2.2759,2.2758,2.2757,2.275,2.275,2.275,2.2754,2.2754,2.2754,0,0,0,0,0,0,2.279,2.2786,2.2784,2.2785,2.2782,2.2777,2.2778,2.2775,2.2772,2.2772,2.2767,2.2766,2.2762,2.276,2.2761,2.2755,2.2754,2.2754,2.2757,2.2757,2.2757,2.2758,2.2757,0,0,0,0,0,2.2792,2.2791,2.2787,2.2788,2.2786,2.2782,2.2781,2.2778,2.2775,2.2773,2.277,2.2765,2.2761,2.2759,2.2756,2.2753,2.2751,2.2752,2.2752,2.2752,2.2752,2.2748,2.2747,2.275,2.275,2.275,0,0,2.2795,2.2792,2.2792,2.2789,2.2786,2.2784,2.2781,2.278,2.2777,2.2773,2.277,2.2766,2.2761,2.2758,2.2756,2.2755,2.275,2.2752,2.2752,2.2752,2.2747,2.2747,2.2747,2.275,2.275,2.275,0,0,2.2799,2.2798,2.2797,2.2794,2.279,2.2787,2.2787,2.2782,2.278,2.2777,2.2772,2.2769,2.2763,2.2759,2.2756,2.2755,2.2752,2.2754,2.2755,2.2751,2.2751,2.275,2.2748,2.2748,2.2754,2.2754,2.2754,0,2.2803,2.2801,2.2797,2.2795,2.2793,2.2789,2.2787,2.2784,2.2779,2.2777,2.2776,2.2767,2.2763,2.2758,2.2757,2.2755,2.2753,2.2755,2.2751,2.2751,2.275,2.2748,2.2748,2.2754,2.2754,2.2754,2.2754,0,2.2805,2.2803,2.2803,2.2798,2.2795,2.2794,2.2788,2.2786,2.2783,2.2779,2.2774,2.2769,2.2763,2.2762,2.2759,2.2755,2.2754,2.2752,2.2751,2.275,2.2748,2.2748,2.2754,2.2754,2.2754,2.2754,0,0,2.2814,2.2805,2.2805,2.2802,2.2796,2.2794,2.279,2.2785,2.2782,2.2778,2.2774,2.2768,2.2765,2.2762,2.2758,2.2755,2.2752,2.2753,2.2753,2.2752,2.2744,2.2745,2.2744,2.2749,2.2749,2.2749,2.2744,0,2.2816,2.2811,2.2807,2.2803,2.28,2.2794,2.2791,2.2786,2.2782,2.2777,2.2772,2.2767,2.2765,2.2763,2.2759,2.2753,2.275,2.2753,2.2744,2.2743,2.2745,2.2743,2.2744,2.274,2.2743,2.2743,2.2743,0,2.2819,2.2814,2.281,2.2802,2.2801,2.2798,2.2791,2.2788,2.2781,2.2777,2.2772,2.2768,2.2762,2.2761,2.2752,2.2754,2.2749,2.2745,2.2745,2.2744,2.2743,2.274,2.2738,2.2737,2.2742,2.2742,2.2742,0,2.2824,2.2817,2.2813,2.281,2.2801,2.2799,2.2795,2.2788,2.2784,2.2778,2.2774,2.2767,2.2763,2.2757,2.275,2.275,2.274,2.2739,2.2735,2.2735,2.2733,2.2734,2.273,2.2732,2.2732,2.2732,2.2732,0,2.2826,2.2823,2.2815,2.2812,2.2808,2.2802,2.2797,2.2792,2.2786,2.2781,2.2775,2.277,2.2762,2.2755,2.2749,2.2741,2.2739,2.2735,2.2733,2.2735,2.2735,2.2732,2.2731,2.2732,2.2732,2.2732,2.2732,0,2.2831,2.2826,2.282,2.2812,2.2809,2.2806,2.2798,2.2794,2.2789,2.2782,2.278,2.2771,2.2763,2.2755,2.2744,2.274,2.2731,2.273,2.2734,2.2732,2.2729,2.2729,2.2722,2.272,2.2725,2.2725,2.2724,0,2.2833,2.2831,2.2821,2.2818,2.2814,2.2808,2.2804,2.2797,2.2792,2.2782,2.2779,2.277,2.2763,2.2749,2.2741,2.2731,2.2729,2.2727,2.2728,2.2728,2.2727,2.2727,2.2726,2.2727,2.2727,2.2727,2.2727,0,2.2836,2.2833,2.2827,2.282,2.2815,2.2809,2.2802,2.2799,2.279,2.2785,2.2776,2.2771,2.2758,2.2749,2.2738,2.2732,2.2727,2.2727,2.2725,2.2727,2.2728,2.2726,2.2732,2.2727,2.2727,2.2727,2.2727,2.2727,2.2838,2.2835,2.2827,2.2821,2.2815,2.2808,2.2803,2.2797,2.279,2.278,2.2776,2.2766,2.2756,2.2742,2.2735,2.2726,2.2726,2.2724,2.2723,2.2722,2.2722,2.273,2.2725,2.2725,2.2725,2.2725,2.2725,0,2.284,2.2834,2.2828,2.2819,2.2813,2.2809,2.2801,2.2796,2.2788,2.2779,2.2772,2.276,2.275,2.274,2.2729,2.2724,2.2721,2.2721,2.2721,2.2719,2.2724,2.2726,2.2724,2.2724,2.2724,2.2724,2.2724,2.2724,2.284,2.2833,2.2828,2.2818,2.2812,2.2803,2.2798,2.2791,2.2784,2.2772,2.2764,2.2758,2.2748,2.2736,2.2725,2.2722,2.2718,2.2718,2.2714,2.2719,2.2719,2.272,2.2721,2.2718,2.2718,2.271,2.271,2.271]}]]